When you browse on this site, cookies collect data to enhance your experience and personalize the content and advertising you see.
Visit our Privacy Policy to learn more. By continuing to use the site, you agree to this use of cookies and data.
  • în România
  • Lista ţărilor
  • Pe 7 zile
  • Temperatura apei
  • Hartă satelitară
  • Meteo pe hartă
  • Widget-uri
  • user-avatar
    Intrare

    Meteo pe oră la Konyshkovo

    Astăzi, 21 Martie, Joi

    Timp Temperatura Precipitaţii Vânt Presiune Umiditate
    00:00 -3°C° 0 mm 2 m/s 743 mmHg 88%
    01:00 -4°C° 0 mm 3 m/s 742 mmHg 86%
    02:00 -4°C° 0 mm 3 m/s 742 mmHg 87%
    03:00 -4°C° 0.1 mm 3 m/s 741 mmHg 89%
    04:00 -2°C° 0.1 mm 3 m/s 741 mmHg 90%
    05:00 -2°C° 0.1 mm 3 m/s 740 mmHg 91%
    06:00 -2°C° 0.1 mm 3 m/s 740 mmHg 90%
    07:00 -1°C° 0.1 mm 3 m/s 740 mmHg 89%
    08:00 -1°C° 0.1 mm 3 m/s 741 mmHg 88%
    09:00 0°C° 0 mm 3 m/s 741 mmHg 85%
    10:00 +1°C° 0 mm 3 m/s 741 mmHg 83%
    11:00 +1°C° 0 mm 3 m/s 741 mmHg 81%
    12:00 +1°C° 0 mm 3 m/s 741 mmHg 79%
    13:00 +2°C° 0 mm 3 m/s 741 mmHg 77%
    14:00 +2°C° 0 mm 3 m/s 741 mmHg 76%
    15:00 +1°C° 0 mm 3 m/s 741 mmHg 79%
    16:00 +2°C° 0 mm 2 m/s 741 mmHg 82%
    17:00 +2°C° 0 mm 2 m/s 741 mmHg 85%
    18:00 +1°C° 0 mm 2 m/s 741 mmHg 88%
    19:00 -1°C° 0 mm 2 m/s 741 mmHg 90%
    20:00 +1°C° 0 mm 1 m/s 741 mmHg 93%
    21:00 -1°C° 0 mm 2 m/s 741 mmHg 93%
    22:00 -1°C° 0 mm 2 m/s 740 mmHg 93%
    23:00 -1°C° 0 mm 2 m/s 740 mmHg 93%

    Mâine, 22 Martie, Vineri

    Timp Temperatura Precipitaţii Vânt Presiune Umiditate
    00:00 -1°C° 0 mm 2 m/s 739 mmHg 92%
    01:00 0°C° 0 mm 3 m/s 738 mmHg 92%
    02:00 0°C° 0 mm 3 m/s 737 mmHg 91%
    03:00 0°C° 0.4 mm 3 m/s 736 mmHg 91%
    04:00 0°C° 0.4 mm 4 m/s 735 mmHg 91%
    05:00 0°C° 0.4 mm 4 m/s 734 mmHg 91%
    06:00 0°C° 1.3 mm 5 m/s 733 mmHg 88%
    07:00 -1°C° 1.3 mm 6 m/s 733 mmHg 86%
    08:00 0°C° 1.3 mm 7 m/s 732 mmHg 83%
    09:00 -1°C° 0.3 mm 7 m/s 733 mmHg 80%
    10:00 -2°C° 0.3 mm 8 m/s 734 mmHg 76%
    11:00 -2°C° 0.3 mm 8 m/s 734 mmHg 72%
    12:00 -2°C° 0 mm 8 m/s 735 mmHg 70%
    13:00 -2°C° 0 mm 7 m/s 736 mmHg 69%
    14:00 -2°C° 0 mm 7 m/s 737 mmHg 67%
    15:00 -3°C° 0.1 mm 7 m/s 737 mmHg 70%
    16:00 -3°C° 0.1 mm 6 m/s 737 mmHg 72%
    17:00 -3°C° 0.1 mm 6 m/s 738 mmHg 75%
    18:00 -3°C° 0.1 mm 6 m/s 738 mmHg 77%
    19:00 -3°C° 0.1 mm 6 m/s 738 mmHg 79%
    20:00 -3°C° 0.1 mm 6 m/s 739 mmHg 81%
    21:00 -3°C° 0 mm 6 m/s 739 mmHg 82%
    22:00 -2°C° 0 mm 5 m/s 740 mmHg 83%
    23:00 -2°C° 0 mm 5 m/s 740 mmHg 83%

    Poimâine, 23 Martie, Sâmbătă

    Timp Temperatura Precipitaţii Vânt Presiune Umiditate
    00:00 -2°C° 0 mm 5 m/s 741 mmHg 84%
    01:00 -2°C° 0 mm 5 m/s 741 mmHg 85%
    02:00 -2°C° 0 mm 5 m/s 742 mmHg 85%
    03:00 -2°C° 0 mm 4 m/s 742 mmHg 86%
    04:00 -2°C° 0 mm 4 m/s 743 mmHg 87%
    05:00 -3°C° 0 mm 4 m/s 743 mmHg 88%
    06:00 -1°C° 0 mm 3 m/s 744 mmHg 88%
    07:00 -1°C° 0 mm 3 m/s 744 mmHg 87%
    08:00 -1°C° 0 mm 3 m/s 745 mmHg 87%
    09:00 +1°C° 0 mm 2 m/s 745 mmHg 84%
    10:00 +2°C° 0 mm 2 m/s 745 mmHg 81%
    11:00 +2°C° 0 mm 2 m/s 745 mmHg 78%
    12:00 +4°C° 0 mm 1 m/s 745 mmHg 77%
    13:00 +4°C° 0 mm 1 m/s 744 mmHg 76%
    14:00 +4°C° 0 mm 1 m/s 744 mmHg 76%
    15:00 +4°C° 0 mm 1 m/s 744 mmHg 79%
    16:00 +3°C° 0 mm 1 m/s 743 mmHg 82%
    17:00 +3°C° 0 mm 1 m/s 743 mmHg 85%
    18:00 +1°C° 0 mm 2 m/s 743 mmHg 86%
    19:00 +1°C° 0 mm 2 m/s 742 mmHg 88%
    20:00 -1°C° 0 mm 2 m/s 742 mmHg 89%
    21:00 -1°C° 0 mm 3 m/s 741 mmHg 88%
    22:00 -1°C° 0 mm 3 m/s 741 mmHg 87%
    23:00 -1°C° 0 mm 3 m/s 740 mmHg 87%

    24 Martie, Duminică

    Timp Temperatura Precipitaţii Vânt Presiune Umiditate
    00:00 -1°C° 0.5 mm 4 m/s 739 mmHg 87%
    01:00 -1°C° 0.5 mm 4 m/s 739 mmHg 88%
    02:00 -1°C° 0.5 mm 4 m/s 738 mmHg 88%
    03:00 0°C° 0.4 mm 3 m/s 738 mmHg 90%
    04:00 0°C° 0.4 mm 3 m/s 738 mmHg 91%
    05:00 0°C° 0.4 mm 3 m/s 737 mmHg 92%
    06:00 0°C° 0 mm 3 m/s 737 mmHg 90%
    07:00 +1°C° 0 mm 3 m/s 737 mmHg 87%
    08:00 0°C° 0 mm 4 m/s 737 mmHg 85%
    09:00 +1°C° 0 mm 4 m/s 737 mmHg 78%
    10:00 +1°C° 0 mm 4 m/s 737 mmHg 70%
    11:00 +3°C° 0 mm 4 m/s 737 mmHg 63%
    12:00 +2°C° 0.2 mm 5 m/s 737 mmHg 64%
    13:00 +1°C° 0.2 mm 5 m/s 737 mmHg 65%
    14:00 +1°C° 0.2 mm 5 m/s 737 mmHg 65%
    15:00 0°C° 0.1 mm 5 m/s 738 mmHg 68%
    16:00 0°C° 0.1 mm 4 m/s 738 mmHg 71%
    17:00 -1°C° 0.1 mm 4 m/s 738 mmHg 74%
    18:00 -1°C° 0 mm 3 m/s 738 mmHg 76%
    19:00 -2°C° 0 mm 3 m/s 739 mmHg 78%
    20:00 -4°C° 0 mm 3 m/s 739 mmHg 80%
    21:00 -4°C° 0 mm 3 m/s 739 mmHg 81%
    22:00 -5°C° 0 mm 3 m/s 739 mmHg 81%
    23:00 -5°C° 0 mm 3 m/s 739 mmHg 81%

    25 Martie, Luni

    Timp Temperatura Precipitaţii Vânt Presiune Umiditate
    00:00 -5°C° 0 mm 3 m/s 739 mmHg 82%
    01:00 -6°C° 0 mm 3 m/s 739 mmHg 83%
    02:00 -6°C° 0 mm 3 m/s 739 mmHg 85%
    03:00 -6°C° 0 mm 3 m/s 739 mmHg 86%
    04:00 -6°C° 0 mm 3 m/s 739 mmHg 87%
    05:00 -5°C° 0 mm 2 m/s 738 mmHg 88%
    06:00 -5°C° 0 mm 2 m/s 738 mmHg 84%
    07:00 -4°C° 0 mm 2 m/s 738 mmHg 81%
    08:00 -3°C° 0 mm 2 m/s 738 mmHg 77%
    09:00 -2°C° 0 mm 2 m/s 738 mmHg 70%
    10:00 -1°C° 0 mm 2 m/s 738 mmHg 63%
    11:00 +1°C° 0 mm 2 m/s 738 mmHg 56%
    12:00 +2°C° 0 mm 2 m/s 738 mmHg 55%
    13:00 +2°C° 0 mm 2 m/s 737 mmHg 53%
    14:00 +3°C° 0 mm 2 m/s 737 mmHg 51%
    15:00 +3°C° 0 mm 1 m/s 736 mmHg 56%
    16:00 +3°C° 0 mm 1 m/s 736 mmHg 61%
    17:00 +2°C° 0 mm 1 m/s 736 mmHg 65%
    18:00 +1°C° 0 mm 1 m/s 735 mmHg 69%
    19:00 0°C° 0 mm 1 m/s 735 mmHg 72%
    20:00 -3°C° 0 mm 2 m/s 735 mmHg 75%
    21:00 -3°C° 0 mm 2 m/s 735 mmHg 75%
    22:00 -3°C° 0 mm 2 m/s 735 mmHg 75%
    23:00 -3°C° 0 mm 2 m/s 734 mmHg 75%

    26 Martie, Marţi

    Timp Temperatura Precipitaţii Vânt Presiune Umiditate
    00:00 -3°C° 0 mm 2 m/s 734 mmHg 74%
    01:00 -3°C° 0 mm 2 m/s 734 mmHg 74%
    02:00 -3°C° 0 mm 2 m/s 734 mmHg 73%
    03:00 -3°C° 0 mm 2 m/s 734 mmHg 73%
    04:00 -4°C° 0 mm 3 m/s 733 mmHg 74%
    05:00 -4°C° 0 mm 3 m/s 733 mmHg 74%
    06:00 -4°C° 0 mm 3 m/s 733 mmHg 72%
    07:00 -2°C° 0 mm 3 m/s 733 mmHg 69%
    08:00 -1°C° 0 mm 3 m/s 733 mmHg 67%
    09:00 -1°C° 0 mm 4 m/s 733 mmHg 63%
    10:00 0°C° 0 mm 4 m/s 733 mmHg 59%
    11:00 +1°C° 0 mm 5 m/s 734 mmHg 55%
    12:00 +1°C° 0 mm 4 m/s 734 mmHg 54%
    13:00 +1°C° 0 mm 4 m/s 734 mmHg 53%
    14:00 +1°C° 0 mm 4 m/s 734 mmHg 52%
    15:00 0°C° 0.1 mm 4 m/s 734 mmHg 57%
    16:00 +1°C° 0.1 mm 3 m/s 734 mmHg 63%
    17:00 0°C° 0.1 mm 3 m/s 734 mmHg 68%
    18:00 -1°C° 0.1 mm 3 m/s 735 mmHg 73%
    19:00 -1°C° 0.1 mm 3 m/s 735 mmHg 78%
    20:00 -2°C° 0.1 mm 3 m/s 735 mmHg 83%
    21:00 -2°C° 0.3 mm 3 m/s 735 mmHg 86%
    22:00 -2°C° 0.3 mm 3 m/s 735 mmHg 89%
    23:00 -2°C° 0.3 mm 2 m/s 735 mmHg 92%
    Arată mai mult